Location: Anumalkud?ru
(16.4847°N, 80.6636°E)
Time: 09:45:24
(UTC+00:00)

SL-16 R/B - Pass Details

Date: 11 April 2026
Orbit: 985 x 1006 km, 99.8° (Epoch: 12 May)

Event Time Altitude Azimuth Distance (km) Brightness Sun altitude
Rises 22:35:57 0° 159° (SSE) 3,701 5.6 -26.1°
Reaches altitude 10° 22:38:26 10° 156° (SSE) 2,755 4.9 -25.5°
Maximum altitude 22:44:34 67° 75° (ENE) 1,079 2.9 -24.1°
Drops below altitude 10° 22:50:44 10° 354° (N) 2,772 5.0 -22.7°
Sets 22:53:14 0° 352° (N) 3,725 5.7 -22.2°
